Date String (YYYY-MM-DD hh:mm:ss) UTC,Instrument flags,Ambient pressure (hPa),Sample flow (lpm),Bypass flow (lpm),Sample temperature (°C),Ambient temperature (°C),ASC tube jacket temperature (°C),LED temperature (°C),Box temperature (°C),Sample RH (%),Span deviation,Mass concentration (μg/m³),Mass concentration (μg/m³),Mass concentration (μg/m³)
DateTimeUTC,F1_M11,P_M11,Q1_M11,Q2_M11,T1_M11,T2_M11,T3_M11,T4_M11,T5_M11,U1_M11,ZSPAN_M11,X0_M11,X2_M11,X1_M11
2022-04-12 19:00:00,,0808.9,5.00,0.00,23.5,22.5,00.0,32.6,25.2,06.6,0000.0,0011.89,0003.76,0001.00
2022-04-12 19:01:00,,0808.9,5.00,0.00,23.5,22.5,00.0,32.6,25.2,06.5,0000.0,0011.92,0003.73,0000.99
2022-04-12 19:02:00,,0808.9,4.99,0.00,23.5,22.5,00.0,32.6,25.2,06.5,0000.0,0011.74,0003.67,0000.97
2022-04-12 19:03:00,,0809.0,5.01,0.00,23.5,22.5,00.0,32.6,25.2,06.3,0000.0,0011.64,0003.69,0000.95
2022-04-12 19:04:00,,0808.9,5.00,0.00,23.5,22.5,00.0,32.6,25.2,06.5,0000.0,0010.94,0003.65,0000.94
2022-04-12 19:05:00,,0809.0,4.99,0.00,23.5,22.5,00.0,32.6,25.2,06.4,0000.0,0010.26,0003.62,0000.95
2022-04-12 19:06:00,,0809.1,5.01,0.00,23.5,22.5,00.0,32.6,25.2,06.5,0000.0,0010.52,0003.69,0000.94
2022-04-12 19:07:00,,0809.1,5.01,0.00,23.5,22.4,00.0,32.6,25.2,06.6,0000.0,0011.32,0003.74,0000.95
2022-04-12 19:08:00,,0809.1,5.00,0.00,23.5,22.5,00.0,32.5,25.2,06.5,0000.0,0011.22,0003.70,0000.96
2022-04-12 19:09:00,,0809.1,4.98,0.00,23.4,22.4,00.0,32.5,25.2,06.6,0000.0,0011.39,0003.74,0000.97
2022-04-12 19:10:00,,0809.2,5.01,0.00,23.4,22.4,00.0,32.5,25.2,06.8,0000.0,0011.53,0003.78,0000.97
2022-04-12 19:11:00,,0809.1,4.99,0.00,23.4,22.4,00.0,32.5,25.1,06.7,0000.0,0011.42,0003.76,0000.96
2022-04-12 19:12:00,,0809.1,5.01,0.00,23.4,22.4,00.0,32.5,25.1,06.6,0000.0,0010.93,0003.74,0000.95
2022-04-12 19:13:00,,0809.0,4.99,0.00,23.4,22.3,00.0,32.5,25.1,06.8,0000.0,0011.04,0003.76,0000.95
2022-04-12 19:14:00,,0809.0,5.01,0.00,23.4,22.3,00.0,32.5,25.1,06.6,0000.0,0011.02,0003.72,0000.93
2022-04-12 19:15:00,,0809.2,4.99,0.00,23.4,22.3,00.0,32.5,25.0,06.7,0000.0,0011.12,0003.75,0000.93
2022-04-12 19:16:00,,0809.1,5.00,0.00,23.4,22.3,00.0,32.5,25.0,06.6,0000.0,0011.60,0003.78,0000.92
2022-04-12 19:17:00,,0809.1,4.99,0.00,23.4,22.3,00.0,32.5,25.1,06.5,0000.0,0011.65,0003.74,0000.92
2022-04-12 19:18:00,,0809.0,5.00,0.00,23.3,22.3,00.0,32.4,25.0,06.5,0000.0,0010.86,0003.71,0000.91
2022-04-12 19:19:00,,0809.0,5.01,0.00,23.3,22.3,00.0,32.4,25.0,06.8,0000.0,0011.04,0003.75,0000.91
2022-04-12 19:20:00,,0809.0,5.00,0.00,23.3,22.3,00.0,32.4,25.0,06.9,0000.0,0011.20,0003.73,0000.90
2022-04-12 19:21:00,,0808.7,4.99,0.00,23.3,22.3,00.0,32.4,25.0,06.5,0000.0,0010.77,0003.64,0000.90
2022-04-12 19:22:00,,0808.7,5.00,0.00,23.3,22.2,00.0,32.4,25.1,06.5,0000.0,0010.50,0003.57,0000.90
2022-04-12 19:23:00,,0808.9,5.02,0.00,23.3,22.2,00.0,32.4,25.0,06.4,0000.0,0010.76,0003.61,0000.90
2022-04-12 19:24:00,,0808.7,4.99,0.00,23.3,22.2,00.0,32.4,25.0,06.6,0000.0,0010.98,0003.60,0000.92
2022-04-12 19:25:00,,0808.5,4.99,0.00,23.3,22.2,00.0,32.4,25.0,06.6,0000.0,0011.09,0003.60,0000.93
2022-04-12 19:26:00,,0808.6,5.00,0.00,23.3,22.1,00.0,32.4,25.0,06.6,0000.0,0011.25,0003.63,0000.93
2022-04-12 19:27:00,,0808.5,5.00,0.00,23.3,22.1,00.0,32.3,25.0,06.5,0000.0,0010.96,0003.66,0000.93
2022-04-12 19:28:00,,0808.5,5.00,0.00,23.3,22.1,00.0,32.3,25.0,06.5,0000.0,0011.45,0003.72,0000.95
2022-04-12 19:29:00,,0808.6,5.01,0.00,23.3,22.1,00.0,32.3,25.0,06.4,0000.0,0012.40,0003.68,0000.95
2022-04-12 19:30:00,,0808.6,4.99,0.00,23.2,22.1,00.0,32.3,25.0,06.3,0000.0,0012.61,0003.68,0000.94
2022-04-12 19:31:00,,0808.7,5.01,0.00,23.2,22.1,00.0,32.3,24.9,06.4,0000.0,0012.34,0003.70,0000.94
2022-04-12 19:32:00,,0808.5,5.01,0.00,23.2,22.1,00.0,32.3,24.9,06.9,0000.0,0012.89,0003.76,0000.93
2022-04-12 19:33:00,,0808.5,4.99,0.00,23.2,22.1,00.0,32.3,24.9,06.8,0000.0,0013.06,0003.81,0000.93
2022-04-12 19:34:00,,0808.7,5.01,0.00,23.2,22.0,00.0,32.2,24.9,06.9,0000.0,0013.63,0003.79,0000.93
2022-04-12 19:35:00,,0808.9,4.99,0.00,23.2,22.0,00.0,32.2,24.9,07.0,0000.0,0013.78,0003.79,0000.92
2022-04-12 19:36:00,,0808.8,5.01,0.00,23.2,22.1,00.0,32.2,24.9,07.1,0000.0,0013.93,0003.81,0000.91
2022-04-12 19:37:00,,0808.9,4.99,0.00,23.1,22.0,00.0,32.2,24.9,07.0,0000.0,0014.81,0003.79,0000.91
2022-04-12 19:38:00,,0809.0,5.02,0.00,23.1,22.0,00.0,32.2,24.9,07.1,0000.0,0014.76,0003.70,0000.91
2022-04-12 19:39:00,,0809.0,5.00,0.00,23.1,22.0,00.0,32.2,24.8,07.1,0000.0,0014.20,0003.65,0000.89
2022-04-12 19:40:00,,0808.9,4.99,0.00,23.1,22.1,00.0,32.2,24.8,07.0,0000.0,0013.15,0003.63,0000.87
2022-04-12 19:41:00,,0808.9,5.00,0.00,23.1,22.0,00.0,32.2,24.9,06.8,0000.0,0012.72,0003.64,0000.87
2022-04-12 19:42:00,,0808.8,5.00,0.00,23.1,22.0,00.0,32.2,24.9,06.6,0000.0,0012.64,0003.60,0000.87
2022-04-12 19:43:00,,0808.8,4.99,0.00,23.1,22.0,00.0,32.2,24.9,06.5,0000.0,0012.53,0003.62,0000.87
2022-04-12 19:44:00,,0808.7,5.01,0.00,23.1,21.9,00.0,32.1,24.9,06.6,0000.0,0012.46,0003.61,0000.86
2022-04-12 19:45:00,,0808.8,4.99,0.00,23.1,21.9,00.0,32.1,24.9,06.5,0000.0,0012.51,0003.62,0000.87
2022-04-12 19:46:00,,0808.9,5.01,0.00,23.1,21.9,00.0,32.1,24.9,06.4,0000.0,0012.59,0003.70,0000.87
2022-04-12 19:47:00,,0808.9,5.01,0.00,23.1,21.9,00.0,32.1,24.8,06.5,0000.0,0012.62,0003.75,0000.88
2022-04-12 19:48:00,,0808.8,4.99,0.00,23.0,21.9,00.0,32.1,24.8,06.4,0000.0,0011.53,0003.71,0000.88
2022-04-12 19:49:00,,0808.8,5.00,0.00,23.0,21.8,00.0,32.1,24.8,06.2,0000.0,0011.54,0003.76,0000.88
2022-04-12 19:50:00,,0808.8,5.00,0.00,23.0,21.8,00.0,32.1,24.8,06.3,0000.0,0011.52,0003.77,0000.89
2022-04-12 19:51:00,,0808.8,5.00,0.00,23.0,21.9,00.0,32.0,24.7,06.4,0000.0,0012.26,0003.81,0000.91
2022-04-12 19:52:00,,0808.9,4.99,0.00,23.0,21.9,00.0,32.0,24.7,06.6,0000.0,0012.69,0003.79,0000.92
2022-04-12 19:53:00,,0808.9,5.01,0.00,23.0,21.9,00.0,32.0,24.7,06.5,0000.0,0012.94,0003.74,0000.92
2022-04-12 19:54:00,,0808.9,4.99,0.00,23.0,21.8,00.0,32.0,24.7,06.5,0000.0,0013.29,0003.71,0000.92
2022-04-12 19:55:00,,0808.9,5.00,0.00,23.0,21.9,00.0,32.0,24.7,06.6,0000.0,0013.05,0003.66,0000.92
2022-04-12 19:56:00,,0808.9,5.01,0.00,22.9,21.8,00.0,32.0,24.7,06.5,0000.0,0012.20,0003.57,0000.91
2022-04-12 19:57:00,,0809.0,5.00,0.00,23.0,21.8,00.0,32.0,24.7,06.4,0000.0,0011.54,0003.48,0000.92
2022-04-12 19:58:00,,0808.9,4.99,0.00,22.9,21.8,00.0,32.0,24.7,06.5,0000.0,0011.51,0003.44,0000.92
2022-04-12 19:59:00,,0808.9,5.00,0.00,22.9,21.8,00.0,31.9,24.7,06.2,0000.0,0012.14,0003.55,0000.92
